Date,TemperatureHighF,TemperatureAvgF,TemperatureLowF,DewpointHighF,DewpointAvgF,DewpointLowF,HumidityHigh,HumidityAvg,HumidityLow,PressureMaxIn,PressureMinIn,WindSpeedMaxMPH,WindSpeedAvgMPH,GustSpeedMaxMPH,PrecipitationSumIn
2013-3-1,43.0,33.8,24.0,28.0,13.9,4.0,74,47,22,0.00,40.00,7,4,15,0.00
2013-3-2,57.0,45.5,37.0,28.0,25.3,22.0,70,47,27,0.00,40.00,9,5,24,0.00
2013-3-3,55.0,44.6,30.0,27.0,24.6,19.0,85,47,29,0.00,40.00,12,4,30,0.00
2013-3-4,29.0,21.9,15.0,19.0,5.7,-2.0,66,50,35,0.00,40.00,14,10,39,0.00
2013-3-5,32.0,20.4,9.0,9.0,2.7,-3.0,60,47,30,0.00,40.00,8,4,28,0.00
2013-3-6,46.0,30.9,16.0,19.0,12.4,4.0,66,48,31,0.00,40.00,8,4,16,0.00
2013-3-7,56.0,40.5,30.0,24.0,20.7,18.0,69,47,28,0.00,40.00,9,4,15,0.00
2013-3-8,46.0,33.1,26.0,27.0,23.7,22.0,86,69,46,0.00,40.00,6,4,13,0.00
2013-3-9,38.0,31.3,24.0,25.0,19.1,8.0,86,63,32,0.00,40.00,18,9,42,0.00
2013-3-10,42.0,29.8,17.0,16.0,2.2,-15.0,70,37,9,0.00,40.00,12,6,30,0.00
2013-3-11,43.0,34.5,27.0,25.0,14.7,1.0,65,45,27,0.00,40.00,13,7,39,0.00
2013-3-12,42.0,27.9,19.0,9.0,-0.3,-6.0,49,31,13,0.00,40.00,11,7,39,0.00
2013-3-13,61.0,46.1,27.0,23.0,17.7,0.0,47,33,22,0.00,40.00,10,5,21,0.00
2013-3-14,69.0,52.4,38.0,27.0,23.4,21.0,57,35,17,0.00,40.00,9,5,18,0.00
2013-3-15,66.0,51.3,38.0,27.0,22.5,18.0,55,35,17,0.00,40.00,11,7,26,0.00
2013-3-16,35.0,29.9,24.0,32.0,27.1,23.0,97,90,70,0.00,40.00,4,2,14,0.14
2013-3-17,50.0,34.0,26.0,33.0,25.5,11.0,96,73,43,0.00,40.00,15,7,36,0.24
2013-3-18,37.0,27.6,19.0,13.0,4.0,-8.0,58,39,14,0.00,40.00,12,7,32,0.05
2013-3-19,35.0,26.8,16.0,14.0,9.6,2.0,64,49,30,0.00,40.00,9,6,25,0.00
2013-3-20,48.0,28.1,10.0,15.0,7.9,2.0,71,46,20,0.00,40.00,10,5,20,0.00
2013-3-21,39.0,28.4,20.0,23.0,17.5,12.0,93,65,48,0.00,40.00,7,4,14,0.00
2013-3-22,38.0,26.3,20.0,25.0,20.9,14.0,93,81,50,0.00,40.00,7,4,16,0.04
2013-3-23,32.0,19.3,8.0,14.0,7.3,3.0,84,62,30,0.00,40.00,8,4,18,0.36
2013-3-24,24.0,11.5,1.0,5.0,-0.2,-5.0,81,61,39,0.00,40.00,11,6,24,0.02
2013-3-25,33.0,17.1,0.0,15.0,4.5,-7.0,85,60,33,0.00,40.00,8,4,11,0.00
2013-3-26,47.0,31.2,11.0,18.0,10.1,1.0,85,44,19,0.00,40.00,9,5,13,0.00
2013-3-27,51.0,34.8,21.0,20.0,13.1,8.0,63,44,25,0.00,40.00,9,7,17,0.00
2013-3-28,59.0,49.8,35.0,26.0,23.6,20.0,70,38,23,0.00,40.00,6,4,12,0.00
2013-3-29,65.0,47.5,30.0,31.0,24.6,19.0,78,46,17,0.00,40.00,8,6,20,0.00
2013-3-30,52.0,42.3,36.0,38.0,29.6,-99.9,88,65,36,0.00,40.00,8,5,24,0.07
2013-3-31,52.0,37.3,27.0,28.0,24.2,17.0,90,62,38,0.00,40.00,8,5,19,0.01